Location: Guferjoch
(46.7462°N, 8.4506°E)
Time: 00:17:57
(UTC+00:00)

Daily predictions for brighter satellites

Satellite Brightness Start Highest point End
(mag) Time Altitude Azimuth Time Altitude Azimuth Time Altitude Azimuth
SL-8 R/B 4.4 00:08:40 36° SE 00:08:40 36° SE 00:12:36 10° E
CZ-4 R/B 3.8 00:03:35 10° NNE 00:08:21 84° WNW 00:09:37 50° SSW
Cosmos 2242 Rocket 4.2 00:05:25 10° N 00:09:53 51° ENE 00:11:25 35° SE
Landsat 4 4.2 00:06:34 10° N 00:10:15 48° WNW 00:10:43 45° W
Cosmos 1441 Rocket 3.8 00:10:43 45° W 00:11:13 48° WNW 00:15:03 10° N
Lacrosse 5 2.0 00:10:40 32° WSW 00:13:02 75° NW 00:18:08 10° NE
SL-16 R/B 3.5 00:11:55 13° SE 00:17:04 44° ENE 00:22:57 10° N
Cosmos 1602 4.2 00:17:36 43° ESE 00:18:04 46° E 00:21:46 10° NNE
BREEZE-M DEB (TANK) 3.5 00:11:09 10° WSW 00:20:28 73° S 00:23:56 10° E
Cosmos 1447 Rocket 4.5 00:14:27 10° N 00:20:49 85° W 00:23:37 36° S
Meteor 1-4 Rocket 2.4 00:17:36 10° NNW 00:21:20 80° W 00:21:27 78° SW
Okean 1 3.7 00:19:14 10° N 00:23:10 58° ENE 00:24:06 44° SE
Cosmos 1933 Rocket 3.6 00:23:25 52° SSE 00:24:20 70° E 00:28:41 10° NNE
Cosmos 1666 Rocket 4.4 00:23:50 33° WSW 00:24:50 38° WNW 00:28:56 10° N
CZ-4C R/B 4.3 00:19:27 10° WNW 00:24:59 22° WSW 00:26:33 21° SW
Iridium 4 Rocket 3.6 00:24:13 41° SSW 00:26:15 79° W 00:31:37 10° N
MOZ.5/SAFIR/RUBIN 5/SL-8 4.4 00:25:51 27° SE 00:28:14 54° ENE 00:32:54 10° N
Helios 1B rocket 2.8 00:28:08 10° N 00:32:10 55° WNW 00:33:01 45° WSW
Cosmos 1697 Rocket 4.2 00:27:14 10° NNW 00:32:23 35° NE 00:37:29 10° ESE
NOSS 2-1 (C) 4.3 00:27:37 10° NW 00:32:47 84° SW 00:39:01 14° SE
USA 267 3.8 00:32:12 32° SSW 00:33:14 34° SW 00:39:07 10° WNW
Cosmos 1437 Rocket 4.2 00:32:16 10° N 00:35:59 34° ENE 00:38:00 21° ESE
Cosmos 1703 Rocket 3.7 00:32:05 10° N 00:36:32 69° E 00:38:05 39° SSE
NOSS 2-1 (D) 4.3 00:32:21 10° NW 00:37:34 78° SW 00:43:45 15° SSE
SeaSat 1 3.7 00:38:55 10° NE 00:43:11 29° ESE 00:45:02 23° SE
Cosmos 2082 Rocket 4.1 00:40:40 13° SE 00:43:45 20° E 00:47:46 10° NE
Cosmos 614 Rocket 4.1 00:43:22 38° S 00:45:11 63° ESE 00:50:15 10° NNE
CZ-2D R/B 2.8 00:41:20 10° NNE 00:46:32 47° E 00:49:08 27° SSE
Cosmos 1833 Rocket 3.8 00:44:54 23° SSE 00:47:23 34° ESE 00:52:24 10° NE
Cosmos 2100 Rocket 4.0 00:45:05 32° S 00:48:13 80° E 00:54:28 10° N
DELTA 2 DEB (DPAF) 4.1 00:46:51 37° SSE 00:48:35 83° ENE 00:53:04 10° NNW
Meteor 1-25 Rocket 4.3 00:47:42 35° SW 00:50:00 65° WNW 00:55:34 10° N
Cosmos 1184 Rocket 2.8 00:49:58 61° W 00:50:02 61° WNW 00:53:17 10° N
Cosmos 1238 Rocket 4.1 00:50:05 31° WSW 00:51:55 42° WNW 00:56:17 10° N
COSMOS 2406 3.6 00:49:39 32° S 00:52:10 55° ESE 00:57:48 10° NE
Cosmos 1656 3.7 00:46:59 10° NNW 00:52:27 78° ENE 00:56:32 18° SSE
Cosmos 405 Rocket 2.6 00:52:44 55° S 00:53:29 82° E 00:57:17 10° NNE
Cosmos 1140 Rocket 4.2 00:52:12 28° SSE 00:54:28 44° ESE 00:59:26 10° NNE
Cosmos 1459 Rocket 3.9 00:52:49 32° S 00:55:52 84° E 01:02:04 10° N
Cosmos 407 Rocket 3.8 00:55:13 33° S 00:57:31 61° ESE 01:02:49 10° NNE
Cosmos 1500 3.7 00:58:26 36° SE 00:59:34 51° E 01:03:15 10° NNE
Meteor 1-29 3.9 00:56:50 10° N 00:59:59 35° WNW 01:00:26 33° W
Cosmos 220 Rocket 4.0 00:56:33 10° NNW 01:00:50 79° ENE 01:02:54 29° SSE
Cosmos 1802 Rocket 4.1 01:03:02 28° S 01:06:38 83° E 01:13:06 10° N
Meteor 1-18 Rocket 4.5 01:04:34 10° NNW 01:10:15 55° W 01:12:51 31° SSW
CZ-4C R/B 3.1 01:11:32 41° S 01:12:47 81° WSW 01:16:29 10° NNW
Cosmos 1515 3.9 01:11:16 10° NNW 01:15:00 52° W 01:15:49 42° SW
Cosmos 1666 4.0 01:13:11 21° SE 01:15:03 33° E 01:18:28 10° NNE
Okean 1-7 3.4 01:14:06 10° NNW 01:18:22 49° W 01:19:45 35° SW
ADEOS II 3.0 01:19:46 10° NNE 01:24:46 42° E 01:28:37 16° SSE
Cosmos 1725 Rocket 4.0 01:21:06 23° S 01:25:08 80° E 01:31:24 10° N
NPP 3.6 01:20:17 10° NNE 01:25:43 86° ESE 01:28:51 26° SSW
Resurs 1-4 Rocket 2.1 01:24:03 10° N 01:29:23 76° WNW 01:32:21 27° SSW
ISS -2.6 01:28:25 10° WNW 01:31:41 45° NNE 01:34:56 10° E
SL-08 R/B 4.5 01:28:13 24° S 01:32:16 89° W 01:38:28 10° N
Cosmos 1733 Rocket 3.8 01:29:34 19° SSE 01:32:21 46° E 01:36:30 10° NNE
Cosmos 1241 Rocket 4.5 01:26:26 10° NW 01:32:50 69° WSW 01:39:18 10° SSE
AQUA 3.8 01:28:52 10° NNE 01:33:40 84° ESE 01:36:23 26° SSW
UNK 4.0 01:33:06 29° SSW 01:35:06 50° W 01:39:38 10° NNW
Abrixas rocket 1.9 01:35:13 15° WNW 01:37:31 80° NNE 01:40:25 10° ESE
Tsikada Rocket 4.0 01:33:01 10° N 01:39:28 87° W 01:45:05 14° S
ATLAS 5 CENTAUR R/B 3.0 01:36:45 10° NW 01:42:16 59° NE 01:48:41 10° SE
Gbstr 26 Del rocket 3.1 01:40:11 10° WNW 01:44:19 84° NNE 01:49:18 10° ESE
Cosmos 2061 Rocket 4.2 01:41:58 23° SSW 01:46:03 62° WNW 01:52:18 10° N
Cosmos 2369 3.7 01:41:53 10° NNW 01:47:38 78° WSW 01:53:21 10° SSE
Cosmos 1980 Rocket 2.6 01:42:44 10° NNW 01:48:27 68° ENE 01:54:06 10° SE
SL-8 R/B 3.7 01:46:36 16° WSW 01:50:29 87° NNW 01:55:20 10° ENE
Okean 3 3.8 01:52:31 10° NNW 01:56:32 46° W 01:58:48 23° SSW
Lacrosse 5 3.6 01:52:11 10° WNW 01:56:40 30° NNW 02:01:08 10° NE
IRS-P3 4.4 01:52:08 10° NNE 01:57:28 65° ESE 02:01:59 14° S
Cosmos 2016 Rocket 4.4 01:53:41 21° SW 01:57:43 50° WNW 02:03:46 10° N
IDEFIX/ARIANE 42P 4.1 01:55:44 10° NNE 02:00:18 30° E 02:04:49 10° SSE
SL-16 R/B 3.2 01:57:01 20° SSW 02:00:44 37° W 02:06:29 10° NNW
BREEZE-M DEB (TANK) 3.7 01:59:24 10° W 02:02:17 45° SSW 02:11:22 10° SE
Cosmos 1536 2.8 02:02:53 21° SSW 02:05:28 71° W 02:09:32 10° N
Cosmos 1356 3.6 02:04:45 18° S 02:07:07 67° E 02:10:33 10° NNE
Cosmos 2278 3.7 02:02:21 10° NNW 02:08:06 79° WSW 02:13:48 10° SSE
Meteor 1-11 Rocket 3.7 02:04:11 18° SSW 02:08:16 68° WNW 02:13:47 10° N
H-2A R/B 3.7 02:06:08 10° SE 02:10:05 35° ENE 02:14:00 10° N
SL-16 R/B 4.0 02:05:28 10° NNW 02:10:39 35° NE 02:15:49 10° ESE
Cosmos 1437 Rocket 4.3 02:09:00 10° NW 02:12:00 20° W 02:13:22 17° WSW
Cosmos 1954 Rocket 4.1 02:08:19 19° SW 02:12:07 67° WNW 02:17:26 10° NNE
Cosmos 921 Rocket 3.1 02:08:33 10° NNW 02:12:53 58° WSW 02:17:07 10° S
Cosmos 1697 Rocket 3.1 02:11:09 10° NW 02:16:27 43° WSW 02:21:41 10° S
Cosmos 2221 Rocket 4.3 02:12:37 10° NNW 02:16:38 35° W 02:19:26 17° SSW
SeaSat 1 3.1 02:16:07 10° NNE 02:20:51 46° NW 02:24:48 14° WSW
Cosmos 1378 Rocket 3.5 02:18:31 10° N 02:22:58 85° WSW 02:27:23 10° S
CZ-4B R/B 4.2 02:20:39 10° N 02:25:22 40° WNW 02:29:11 14° SW
IRS-1D 3.9 02:20:45 10° N 02:25:31 49° WNW 02:29:30 14° SW
CZ-2D R/B 3.4 02:21:51 10° N 02:26:20 28° WNW 02:30:27 12° WSW
Cosmos 2082 Rocket 2.3 02:22:31 15° SW 02:27:14 70° WNW 02:32:58 10° NNE
CZ-4C R/B 4.3 02:24:49 10° SE 02:27:49 37° ENE 02:30:47 10° N
COBE Rocket 4.3 02:23:53 11° S 02:28:35 47° W 02:33:19 10° NNW
Aureole 1 Rocket 4.4 02:26:02 14° WSW 02:29:48 40° NW 02:35:38 10° NNE
Cosmos 1763 Rocket 3.6 02:24:46 10° NNW 02:30:03 89° ENE 02:35:22 10° SSE
Cosmos 1833 Rocket 3.4 02:26:35 13° WSW 02:31:12 42° NW 02:36:33 10° NNE
Meteor 1-23 Rocket 4.4 02:27:56 10° NNW 02:33:35 58° W 02:39:14 10° S
ERS-2 3.0 02:30:46 10° SSE 02:34:19 53° ENE 02:37:53 10° N
Meteor 1-28 Rocket 3.2 02:31:57 10° S 02:35:37 62° W 02:39:19 10° NNW
Okean 2 4.0 02:34:13 10° N 02:38:16 58° ENE 02:42:18 10° SSE
Cosmos 468 Rocket 4.0 02:36:00 10° NNW 02:41:16 65° WSW 02:46:31 10° S
Cosmos 1570 Rocket 4.4 02:38:08 10° NNW 02:43:24 68° ENE 02:48:39 10° SSE
CZ-2D R/B 3.6 02:39:46 10° NNE 02:44:11 86° E 02:48:27 10° SSW
Cosmos 1271 Rocket 2.9 02:42:45 10° N 02:46:33 75° ENE 02:50:17 10° SSE
Cosmos 1674 Rocket 4.2 02:43:53 10° NNW 02:47:53 36° W 02:51:49 10° SSW
Cosmos 1666 4.4 02:48:04 10° WSW 02:50:44 19° WNW 02:53:28 10° NNW
Cosmos 1850 Rocket 4.1 02:46:44 10° SSW 02:52:04 74° WNW 02:57:26 10° NNE
Cosmos 2322 Rocket 3.1 02:46:32 10° NNW 02:52:07 55° ENE 02:57:41 10° SE
ATLAS 5 CENTAUR R/B 4.3 02:48:07 10° WNW 02:52:33 31° SW 03:05:06 10° S
Cosmos 841 Rocket 3.6 02:52:28 10° NNW 02:57:41 83° ENE 03:02:52 10° SSE
ARIANE 5 R/B 2.8 02:52:51 10° N 02:57:49 55° WNW 03:02:49 10° SSW
Cosmos 540 Rocket 3.7 02:52:42 10° NNW 02:57:53 79° ENE 03:03:02 10° SSE
Cosmos 1782 Rocket 3.7 02:54:38 10° S 02:59:05 83° E 03:03:32 10° N
ADEOS II 3.2 02:59:46 10° N 03:04:19 30° WNW 03:08:50 10° WSW
Cosmos 1544 3.0 03:01:00 10° SSW 03:04:34 71° W 03:08:09 10° N
USA 238 DEB 4.1 02:59:30 10° SSW 03:06:01 62° ESE 03:12:48 10° NE
USA 238 4.1 02:59:37 10° SSW 03:06:06 61° ESE 03:12:53 10° NE
Cosmos 1743 3.4 03:02:58 10° SW 03:06:31 37° WNW 03:10:07 10° N
Cosmos 1818 3.7 03:01:25 10° NW 03:06:44 53° WSW 03:11:59 10° SSE
SL-08 R/B 4.3 03:02:38 10° SSW 03:06:46 29° W 03:10:59 10° NW
Resurs 1-4 Rocket 4.2 03:05:53 10° NNW 03:08:19 13° NW 03:10:45 10° W
ISS -3.5 03:05:15 10° WNW 03:08:30 47° SSW 03:11:44 10° SE
Spot 4 Rocket 4.2 03:04:54 10° N 03:09:59 60° WNW 03:15:03 10° SSW
Cosmos 1741 Rocket 4.3 03:04:53 10° SW 03:10:00 55° WNW 03:15:09 10° NNE
Cosmos 1908 Rocket 4.1 03:06:43 10° SSW 03:10:59 43° WNW 03:15:16 10° N
